Location: Unspecified
(35.7250°N, 0.0000°E)
Time: 22:46:23
(UTC+00:00)

Vanguard 1 - Pass Details

Date: 25 June 2019
Orbit: 653 x 3830 km, 34.3° (Epoch: 12 October)

Event Time Altitude Azimuth Distance (km) Brightness Sun altitude
Rises 04:25:02 0° 267° (W) 7,345 14.0 -4.3°
Reaches altitude 10° 04:30:34 10° 268° (W) 5,922 13.5 -3.4°
Maximum altitude 04:47:00 84° 183° (S) 1,902 11.6 -0.5°
Drops below altitude 10° 04:55:27 10° 96° (E) 3,260 13.8 1.0°
Sets 04:57:38 0° 96° (E) 3,967 14.3 1.4°
